TimeCST,TemperatureF,Dew PointF,Humidity,Sea Level PressureIn,VisibilityMPH,Wind Direction,Wind SpeedMPH,Gust SpeedMPH,PrecipitationIn,Events,Conditions,WindDirDegrees,DateUTC
12:53 AM,23.0,10.9,60,30.09,10.0,SW,4.6,-,N/A,,Clear,220,2012-12-11 06:53:00
1:53 AM,25.0,12.0,58,30.07,10.0,SW,3.5,-,N/A,,Clear,220,2012-12-11 07:53:00
2:53 AM,25.0,12.9,60,30.07,10.0,Calm,Calm,-,N/A,,Clear,0,2012-12-11 08:53:00
3:53 AM,19.0,7.0,59,30.07,10.0,Calm,Calm,-,N/A,,Clear,0,2012-12-11 09:53:00
4:53 AM,19.9,9.0,62,30.08,10.0,North,8.1,-,N/A,,Clear,10,2012-12-11 10:53:00
5:53 AM,19.9,9.0,62,30.08,10.0,NNE,3.5,-,N/A,,Clear,30,2012-12-11 11:53:00
6:53 AM,21.0,12.0,68,30.09,10.0,ESE,5.8,-,N/A,,Clear,120,2012-12-11 12:53:00
7:53 AM,18.0,10.0,71,30.14,10.0,SE,3.5,-,N/A,,Clear,140,2012-12-11 13:53:00
8:53 AM,27.0,16.0,63,30.15,10.0,SE,5.8,-,N/A,,Clear,130,2012-12-11 14:53:00
9:53 AM,35.1,19.0,52,30.16,10.0,South,5.8,-,N/A,,Clear,180,2012-12-11 15:53:00
10:53 AM,39.9,18.0,41,30.17,10.0,South,9.2,-,N/A,,Clear,180,2012-12-11 16:53:00
11:53 AM,45.0,17.1,33,30.15,10.0,South,5.8,-,N/A,,Clear,180,2012-12-11 17:53:00
12:53 PM,46.9,14.0,27,30.12,10.0,South,4.6,-,N/A,,Clear,190,2012-12-11 18:53:00
1:53 PM,48.9,12.9,24,30.10,10.0,SSE,4.6,-,N/A,,Clear,160,2012-12-11 19:53:00
2:53 PM,48.9,14.0,25,30.09,10.0,SSW,3.5,-,N/A,,Clear,200,2012-12-11 20:53:00
3:53 PM,48.9,14.0,25,30.09,10.0,SE,6.9,-,N/A,,Clear,140,2012-12-11 21:53:00
4:53 PM,48.0,14.0,26,30.10,10.0,SSE,5.8,-,N/A,,Clear,160,2012-12-11 22:53:00
5:53 PM,39.9,12.9,33,30.12,10.0,SE,8.1,-,N/A,,Clear,140,2012-12-11 23:53:00
6:53 PM,36.0,12.9,39,30.13,10.0,North,-9999.0,-,N/A,,Clear,0,2012-12-12 00:53:00
7:53 PM,34.0,12.0,40,30.17,10.0,ESE,6.9,-,N/A,,Clear,120,2012-12-12 01:53:00
8:53 PM,33.1,12.0,42,30.17,10.0,SE,8.1,-,N/A,,Clear,130,2012-12-12 02:53:00
9:53 PM,30.0,10.0,43,30.17,10.0,ESE,8.1,-,N/A,,Clear,120,2012-12-12 03:53:00
10:53 PM,30.0,10.9,45,30.18,10.0,SE,9.2,-,N/A,,Clear,140,2012-12-12 04:53:00
11:53 PM,28.0,10.0,47,30.18,10.0,South,6.9,-,N/A,,Clear,170,2012-12-12 05:53:00